TimeEDT,TemperatureF,Dew PointF,Humidity,Sea Level PressureIn,VisibilityMPH,Wind Direction,Wind SpeedMPH,Gust SpeedMPH,PrecipitationIn,Events,Conditions,WindDirDegrees,DateUTC
12:53 AM,71.1,62.1,73,29.83,10.0,SE,5.8,-,N/A,,Clear,130,2013-05-20 04:53:00
1:53 AM,73.9,62.1,66,29.82,10.0,SSE,9.2,-,N/A,,Partly Cloudy,160,2013-05-20 05:53:00
2:53 AM,73.0,63.0,71,29.81,10.0,SE,5.8,-,N/A,,Clear,140,2013-05-20 06:53:00
3:53 AM,73.9,64.0,71,29.81,10.0,South,8.1,-,N/A,,Mostly Cloudy,170,2013-05-20 07:53:00
4:53 AM,72.0,64.9,78,29.79,10.0,SE,6.9,-,N/A,,Clear,130,2013-05-20 08:53:00
5:53 AM,72.0,64.9,78,29.79,8.0,SE,6.9,-,N/A,,Clear,130,2013-05-20 09:53:00
7:53 AM,73.0,66.9,81,29.82,6.0,SSE,9.2,-,N/A,,Haze,150,2013-05-20 11:53:00
8:53 AM,75.9,68.0,76,29.83,8.0,South,10.4,-,N/A,,Mostly Cloudy,180,2013-05-20 12:53:00
9:19 AM,77.0,68.0,74,29.84,9.0,South,10.4,-,N/A,,Partly Cloudy,190,2013-05-20 13:19:00
9:53 AM,78.1,68.0,71,29.82,9.0,SSW,9.2,17.3,N/A,,Partly Cloudy,200,2013-05-20 13:53:00
10:53 AM,82.0,66.9,60,29.79,10.0,SSW,10.4,-,N/A,,Clear,200,2013-05-20 14:53:00
11:53 AM,84.0,66.9,56,29.81,10.0,South,10.4,18.4,N/A,,Clear,170,2013-05-20 15:53:00
12:53 PM,84.9,66.0,53,29.78,10.0,South,11.5,-,0.00,Rain,Light Rain,170,2013-05-20 16:53:00
1:53 PM,82.9,63.0,51,29.79,10.0,SSW,11.5,18.4,0.00,,Clear,200,2013-05-20 17:53:00
2:53 PM,86.0,64.0,48,29.79,10.0,South,10.4,-,N/A,,Clear,180,2013-05-20 18:53:00
3:32 PM,89.6,59.0,36,29.80,10.0,WSW,17.3,25.3,N/A,,Scattered Clouds,240,2013-05-20 19:32:00
3:53 PM,89.1,59.0,36,29.77,10.0,SW,18.4,25.3,N/A,,Partly Cloudy,230,2013-05-20 19:53:00
4:53 PM,89.1,57.9,35,29.75,10.0,WSW,18.4,26.5,N/A,,Clear,240,2013-05-20 20:53:00
5:53 PM,87.1,55.0,33,29.77,10.0,SW,16.1,27.6,N/A,,Clear,220,2013-05-20 21:53:00
6:53 PM,89.1,57.0,34,29.73,10.0,SSW,13.8,21.9,N/A,,Clear,210,2013-05-20 22:53:00
7:53 PM,86.0,62.1,44,29.73,10.0,South,13.8,21.9,N/A,,Clear,190,2013-05-20 23:53:00
8:53 PM,82.9,63.0,51,29.74,10.0,South,8.1,17.3,N/A,,Clear,190,2013-05-21 00:53:00
9:53 PM,81.0,64.0,56,29.75,10.0,South,5.8,-,N/A,,Partly Cloudy,170,2013-05-21 01:53:00
10:53 PM,80.1,64.0,58,29.75,10.0,South,11.5,-,N/A,,Partly Cloudy,190,2013-05-21 02:53:00
11:53 PM,79.0,63.0,58,29.75,10.0,SSW,10.4,19.6,N/A,,Clear,200,2013-05-21 03:53:00